Location: Kumla
(59.1265°N, 15.1401°E)
Time: 03:35:58
(UTC+01:00)

Vanguard 2 Rocket - Pass Details

Date: 03 December 2023
Orbit: 554 x 3309 km, 32.9° (Epoch: 27 February)

Event Time Altitude Azimuth Distance (km) Brightness Sun altitude
Rises 14:10:41 0° 203° (SSW) 6,707 13.7 3.7°
Reaches altitude 10° 14:16:49 10° 189° (S) 6,002 12.5 3.3°
Maximum altitude 14:28:45 20° 151° (SSE) 5,402 11.2 2.4°
Drops below altitude 10° 14:40:43 10° 113° (ESE) 6,053 10.9 1.4°
Sets 14:46:51 0° 99° (E) 6,785 11.0 0.9°
